Home   Weather   Culiacán   Past weeks

Flag for Mexico Past Weather in Culiacán, Sinaloa, Mexico — Yesterday and Last 2 Weeks

Now
81 °F

Sunny.


Feels Like: 83 °F
Forecast: 64 / 93 °F
Wind: No wind

Location: Culiacan - Sin.

Current Time: Apr 25, 2017 at 10:53:03 am

Latest Report: Apr 25, 2017 at 9:40 am


Visibility: 10 mi

Pressure: 29.87 "Hg

Humidity: 62%

Dew Point: 66 °F

Location of CuliacánLocation

Past Weather in Culiacán — Graph

°F

Culiacán Temperature Yesterday

Maximum temperature yesterday: 91 °F (at 2:40 pm)
Minimum temperature yesterday: 73 °F (at 5:46 am)
Average temperature yesterday: 82 °F

High & Low Weather Summary for the Past Weeks

 TemperatureHumidityPressure
High93 °F (Apr 12, 1:42 pm)100% (Apr 12, 6:43 am)29.98 "Hg (Apr 12, 6:43 am)
Low61 °F (Apr 12, 6:10 am)13% (Apr 16, 1:40 pm)29.74 "Hg (Apr 20, 5:41 pm)
Average80 °F53%29.86 "Hg
* Reported Apr 10 8:40 am — Apr 25 8:40 am, Culiacán, Weather by CustomWeather, © 2017

Note: Actual official high and low records may vary slightly from our data, if they occured in-between our weather recording intervals... More about our weather records

Advertising

Culiacán Weather History for the Previous 24 Hours

Scroll right to see more
 ConditionsComfort  
Time TempWeatherWind HumidityBarometerVisibility
8:40 am
Tue, Apr 25
77 °FSunny.6 mph69%29.88 "Hg10 mi
7:44 am72 °FSunny.6 mph83%29.86 "Hg10 mi
6:55 am70 °FSunny.5 mph83%29.85 "Hg10 mi
5:56 am70 °FClear.3 mph83%29.85 "Hg8 mi
10:40 pm
Mon, Apr 24
75 °FClear.No wind78%29.88 "Hg10 mi
9:40 pm75 °FClear.7 mph74%29.86 "Hg10 mi
8:40 pm75 °FClear.7 mph54%29.85 "Hg10 mi
7:42 pm81 °FClear.6 mph58%29.81 "Hg10 mi
6:45 pm84 °FSunny.12 mph51%29.80 "Hg10 mi
5:41 pm88 °FSunny.14 mph52%29.79 "Hg10 mi
4:40 pm90 °FSunny.14 mph49%29.80 "Hg10 mi
3:41 pm90 °FSunny.12 mph52%29.81 "Hg10 mi
2:40 pm91 °FSunny.12 mph38%29.87 "Hg10 mi
1:46 pm90 °FSunny.9 mph49%29.86 "Hg10 mi
12:40 pm90 °FSunny.9 mph46%29.88 "Hg10 mi
11:46 am88 °FSunny.5 mph49%29.89 "Hg10 mi
10:40 am86 °FSunny.9 mph52%29.90 "Hg10 mi
Weather by CustomWeather, © 2017

See weather overviewHow to use our weather pages